STARLINK-33707, 63401

Orbit data source: Space-Track

STARLINK-33707, 63401 is a payload satellite owned by SpaceX/Seattle (US) in LEO that was launched on Mon, 31 Mar 2025 UTC via an FALCON 9 launch vehicle from the Air Force Eastern Test Range (AFETR). Payload-class satellites include a variety of spacecraft equipped with specific instruments for various scientific and technological missions. These include communications satellites like Starlink; space stations such as the ISS; scientific satellites like the Hubble; Earth observation satellites from companies like Planet Labs, Umbra, and HawkEye 360; GPS; miniature CubeSats for education and research; and military/defense satellites.

Loading next visibility...
Identifier
63401, 2025-065C
Orbit
LEO
Country
Flag of USUS
Related business
Manufacturer
SpaceX/Seattle
Mission
Operational Commercial Communications
Bus & Motor
STARLINK V2MO, Unknown motor
Mass
575 kg wet, ~530 kg dry
Launch date (UTC)
2025-03-31 (1 year ago)
Launch vehicle
FALCON 9
Launch site
Air Force Eastern Test Range (AFETR)
Object type
Payload
Rocket body
Debris
Shape & HBR
Box + 2 Pan, 17.7 m
Radar Cross Section
36.964 m², Large (>1 m²)

Expand to show TLE details & history
Last TLE update: 2 days ago

TLE from 2 days ago
0 STARLINK-33707
1 63401U 25065C   26170.31444876  .00013843  00000-0  51148-3 0  9996
2 63401  43.0021 253.0347 0001020 252.7088 107.3652 15.27588955 68389
Epoch: 2026-06-19T07:32Z
TLE epoch observation values (Epoch: 2026-06-19T07:32:48.372Z)
Latitude
-0.00004°
Longitude
-127.71209°
Altitude
483.007 km
Speed
7.626 km/s
True Right ascension
16h 52m 08s
True Declination
0° 00' 00"
Sunlit
Object was in full shadow at epoch
Visualization orbit readout
Latitude
Unknown
Longitude
Unknown
Altitude
Unknown
Speed
Unknown
Apparent Right ascension
Unknown
Apparent Declination
Unknown
Sunlit
N/A
Visualization observer readout
Local Sidereal Time
08:43:13
Azimuth
Unknown
Elevation
Unknown
Doppler factor
Unknown
Orbital elements
Apogee altitude
485.667 km
Perigee altitude
484.267 km
Semi-major axis
6,863.104 km
Eccentricity
0.0001
Inclination
43.0021°
RAAN
253.0347°
Arg. of periapsis
252.7088°
True anomaly
107.37636°
Mean anomaly
107.3652°
Eccentric anomaly
107.37078°
Mean motion
3.81735 °/min
Orbital period
94.31 mins
BSTAR
0.00051148
Loading maneuver chart data...
Computing Atmospheric mass density...
Loading historical data...
Loading historical data...
Loading historical data...
Loading historical data...
Loading historical data...
Loading historical data...
Loading historical data...

Documentation

Showing up to 5 results
|